Location: Aldenham
(51.6667°N, 0.3500°W)
Time: 05:04:56
(UTC+00:00)

Altair - Pass Details

Date: 20 February 2026
Orbit: 1502 x 1682 km, 47.2° (Epoch: 5 March)

Event Time Altitude Azimuth Distance (km) Brightness Sun altitude
Rises 02:09:02 0° 183° (S) 4,622 - -43.2°
Reaches altitude 10° 02:13:26 10° 164° (SSE) 3,647 - -42.7°
Maximum altitude 02:18:42 17° 128° (SE) 3,147 - -42.2°
Exits shadow 02:18:59 17° 126° (SE) 3,150 9.1 -42.2°
Drops below altitude 10° 02:24:00 10° 93° (E) 3,692 9.8 -41.6°
Sets 02:28:27 0° 75° (ENE) 4,705 10.7 -41.1°
